• In Czech Republic
  • List of Countries
  • For 7 days
  • Water Temperature
  • Satellite Maps
  • Weather Map
  • Weather Widgets
  • user-avatar
    Login

    Hourly Weather Arkalyk

    Today, 18 August, Saturday

    Time Temperature Precipitation Wind Pressure Humidity
    00:00 +22°C° 0 mm 3 mps 729 mmHg 44%
    01:00 +21°C° 0 mm 3 mps 729 mmHg 45%
    02:00 +21°C° 0 mm 3 mps 729 mmHg 47%
    03:00 +20°C° 0 mm 3 mps 729 mmHg 49%
    04:00 +20°C° 0 mm 3 mps 729 mmHg 49%
    05:00 +21°C° 0 mm 3 mps 729 mmHg 47%
    06:00 +22°C° 0 mm 3 mps 729 mmHg 44%
    07:00 +24°C° 0 mm 3 mps 729 mmHg 41%
    08:00 +26°C° 0 mm 2 mps 729 mmHg 38%
    09:00 +27°C° 0 mm 1 mps 729 mmHg 34%
    10:00 +28°C° 0 mm 1 mps 729 mmHg 31%
    11:00 +29°C° 0 mm 1 mps 728 mmHg 29%
    12:00 +30°C° 0 mm 2 mps 728 mmHg 27%
    13:00 +31°C° 0 mm 3 mps 727 mmHg 25%
    14:00 +31°C° 0 mm 3 mps 727 mmHg 24%
    15:00 +31°C° 0 mm 3 mps 727 mmHg 23%
    16:00 +33°C° 0 mm 3 mps 727 mmHg 22%
    17:00 +30°C° 0 mm 3 mps 726 mmHg 24%
    18:00 +29°C° 0 mm 3 mps 726 mmHg 26%
    19:00 +28°C° 0 mm 3 mps 726 mmHg 28%
    20:00 +28°C° 0 mm 3 mps 726 mmHg 29%
    21:00 +27°C° 0 mm 4 mps 726 mmHg 30%
    22:00 +26°C° 0 mm 4 mps 726 mmHg 31%
    23:00 +26°C° 0 mm 4 mps 725 mmHg 33%

    Tomorrow, 19 August, Sunday

    Time Temperature Precipitation Wind Pressure Humidity
    00:00 +25°C° 0 mm 4 mps 725 mmHg 35%
    01:00 +25°C° 0 mm 4 mps 725 mmHg 36%
    02:00 +23°C° 0 mm 4 mps 725 mmHg 40%
    03:00 +22°C° 0 mm 3 mps 724 mmHg 43%
    04:00 +22°C° 0 mm 3 mps 724 mmHg 46%
    05:00 +24°C° 0 mm 3 mps 724 mmHg 44%
    06:00 +25°C° 0 mm 4 mps 724 mmHg 42%
    07:00 +27°C° 0 mm 4 mps 724 mmHg 40%
    08:00 +28°C° 0 mm 4 mps 724 mmHg 35%
    09:00 +30°C° 0 mm 4 mps 724 mmHg 31%
    10:00 +32°C° 0 mm 4 mps 724 mmHg 26%
    11:00 +33°C° 0 mm 4 mps 724 mmHg 24%
    12:00 +33°C° 0 mm 4 mps 724 mmHg 23%
    13:00 +33°C° 0 mm 4 mps 723 mmHg 21%
    14:00 +33°C° 0 mm 4 mps 723 mmHg 24%
    15:00 +32°C° 0 mm 4 mps 723 mmHg 26%
    16:00 +32°C° 0 mm 4 mps 723 mmHg 28%
    17:00 +29°C° 0 mm 5 mps 723 mmHg 37%
    18:00 +27°C° 0 mm 6 mps 723 mmHg 45%
    19:00 +24°C° 0 mm 6 mps 723 mmHg 54%
    20:00 +23°C° 0 mm 6 mps 723 mmHg 58%
    21:00 +22°C° 0 mm 5 mps 723 mmHg 61%
    22:00 +22°C° 0 mm 5 mps 723 mmHg 65%
    23:00 +21°C° 0 mm 4 mps 723 mmHg 68%

    Day after tomorrow, 20 August, Monday

    Time Temperature Precipitation Wind Pressure Humidity
    00:00 +20°C° 0 mm 4 mps 723 mmHg 70%
    01:00 +20°C° 0 mm 3 mps 722 mmHg 73%
    02:00 +19°C° 0 mm 4 mps 722 mmHg 76%
    03:00 +18°C° 0 mm 4 mps 722 mmHg 79%
    04:00 +16°C° 0 mm 5 mps 722 mmHg 83%
    05:00 +16°C° 0 mm 5 mps 723 mmHg 80%
    06:00 +17°C° 0 mm 5 mps 723 mmHg 78%
    07:00 +17°C° 0 mm 5 mps 723 mmHg 75%
    08:00 +19°C° 0 mm 4 mps 723 mmHg 70%
    09:00 +20°C° 0 mm 4 mps 723 mmHg 64%
    10:00 +21°C° 0 mm 4 mps 723 mmHg 59%
    11:00 +21°C° 0.1 mm 5 mps 723 mmHg 59%
    12:00 +21°C° 0.1 mm 5 mps 723 mmHg 59%
    13:00 +21°C° 0.1 mm 6 mps 723 mmHg 59%
    14:00 +20°C° 0.3 mm 6 mps 723 mmHg 62%
    15:00 +18°C° 0.3 mm 7 mps 723 mmHg 66%
    16:00 +17°C° 0.3 mm 8 mps 723 mmHg 70%
    17:00 +16°C° 0.2 mm 8 mps 723 mmHg 72%
    18:00 +16°C° 0.2 mm 8 mps 723 mmHg 74%
    19:00 +15°C° 0.2 mm 8 mps 723 mmHg 75%
    20:00 +15°C° 0.7 mm 9 mps 723 mmHg 76%
    21:00 +13°C° 0.7 mm 9 mps 723 mmHg 76%
    22:00 +13°C° 0.7 mm 9 mps 723 mmHg 76%
    23:00 +12°C° 0.6 mm 9 mps 723 mmHg 76%

    21 August, Tuesday

    Time Temperature Precipitation Wind Pressure Humidity
    00:00 +12°C° 0.6 mm 9 mps 723 mmHg 76%
    01:00 +12°C° 0.6 mm 9 mps 723 mmHg 75%
    02:00 +11°C° 0.3 mm 10 mps 723 mmHg 75%
    03:00 +11°C° 0.3 mm 10 mps 723 mmHg 76%
    04:00 +11°C° 0.3 mm 10 mps 724 mmHg 76%
    05:00 +11°C° 0 mm 10 mps 724 mmHg 72%
    06:00 +11°C° 0 mm 10 mps 725 mmHg 68%
    07:00 +11°C° 0 mm 11 mps 726 mmHg 64%
    08:00 +13°C° 0 mm 11 mps 726 mmHg 58%
    09:00 +16°C° 0 mm 11 mps 726 mmHg 52%
    10:00 +17°C° 0 mm 11 mps 727 mmHg 46%
    11:00 +18°C° 0 mm 11 mps 727 mmHg 42%
    12:00 +19°C° 0 mm 11 mps 727 mmHg 39%
    13:00 +21°C° 0 mm 11 mps 727 mmHg 35%
    14:00 +21°C° 0 mm 11 mps 727 mmHg 36%
    15:00 +21°C° 0 mm 11 mps 727 mmHg 36%
    16:00 +21°C° 0 mm 10 mps 727 mmHg 36%
    17:00 +21°C° 0 mm 9 mps 727 mmHg 41%
    18:00 +20°C° 0 mm 8 mps 728 mmHg 45%
    19:00 +19°C° 0 mm 6 mps 728 mmHg 50%
    20:00 +19°C° 0.1 mm 6 mps 728 mmHg 50%
    21:00 +19°C° 0.1 mm 6 mps 728 mmHg 51%
    22:00 +17°C° 0.1 mm 6 mps 727 mmHg 52%
    23:00 +17°C° 0.1 mm 6 mps 727 mmHg 57%

    22 August, Wednesday

    Time Temperature Precipitation Wind Pressure Humidity
    00:00 +16°C° 0.1 mm 6 mps 727 mmHg 62%
    01:00 +16°C° 0.1 mm 6 mps 727 mmHg 66%
    02:00 +16°C° 0 mm 6 mps 727 mmHg 71%
    03:00 +15°C° 0 mm 6 mps 727 mmHg 75%
    04:00 +15°C° 0 mm 6 mps 727 mmHg 79%
    05:00 +15°C° 0 mm 6 mps 727 mmHg 76%
    06:00 +16°C° 0 mm 7 mps 727 mmHg 73%
    07:00 +17°C° 0 mm 7 mps 728 mmHg 71%
    08:00 +18°C° 0 mm 7 mps 728 mmHg 64%
    09:00 +21°C° 0 mm 8 mps 728 mmHg 58%
    10:00 +22°C° 0 mm 8 mps 728 mmHg 52%
    11:00 +23°C° 0 mm 8 mps 728 mmHg 48%
    12:00 +24°C° 0 mm 8 mps 727 mmHg 45%
    13:00 +26°C° 0 mm 8 mps 727 mmHg 41%
    14:00 +26°C° 0 mm 8 mps 727 mmHg 40%
    15:00 +26°C° 0 mm 7 mps 727 mmHg 40%
    16:00 +26°C° 0 mm 7 mps 728 mmHg 40%
    17:00 +25°C° 0 mm 5 mps 728 mmHg 42%
    18:00 +23°C° 0 mm 4 mps 728 mmHg 45%
    19:00 +22°C° 0 mm 3 mps 728 mmHg 48%
    20:00 +21°C° 0 mm 2 mps 728 mmHg 52%
    21:00 +20°C° 0 mm 2 mps 728 mmHg 57%
    22:00 +20°C° 0 mm 1 mps 727 mmHg 61%
    23:00 +20°C° 0 mm 1 mps 727 mmHg 62%

    23 August, Thursday

    Time Temperature Precipitation Wind Pressure Humidity
    00:00 +20°C° 0 mm 1 mps 727 mmHg 63%
    01:00 +19°C° 0 mm 1 mps 727 mmHg 64%
    02:00 +20°C° 0 mm 1 mps 727 mmHg 63%
    03:00 +20°C° 0 mm 1 mps 727 mmHg 63%
    04:00 +19°C° 0 mm 2 mps 727 mmHg 63%
    05:00 +20°C° 0 mm 2 mps 727 mmHg 61%
    06:00 +21°C° 0 mm 3 mps 727 mmHg 60%
    07:00 +22°C° 0 mm 3 mps 728 mmHg 59%
    08:00 +23°C° 0 mm 4 mps 728 mmHg 54%
    09:00 +26°C° 0 mm 5 mps 728 mmHg 49%
    10:00 +27°C° 0 mm 6 mps 728 mmHg 45%
    11:00 +28°C° 0 mm 6 mps 727 mmHg 41%
    12:00 +29°C° 0 mm 6 mps 727 mmHg 38%
    13:00 +29°C° 0 mm 7 mps 727 mmHg 34%
    14:00 +30°C° 0 mm 7 mps 727 mmHg 31%
    15:00 +30°C° 0 mm 7 mps 727 mmHg 29%
    16:00 +30°C° 0 mm 7 mps 727 mmHg 26%
    17:00 +29°C° 0 mm 7 mps 727 mmHg 29%
    18:00 +27°C° 0 mm 6 mps 727 mmHg 31%
    19:00 +26°C° 0 mm 6 mps 727 mmHg 34%
    20:00 +23°C° 0 mm 6 mps 727 mmHg 44%
    21:00 +22°C° 0 mm 6 mps 728 mmHg 54%
    22:00 +20°C° 0 mm 6 mps 728 mmHg 64%
    23:00 +19°C° 0 mm 5 mps 728 mmHg 67%
    Show more